STARLINK-34586

Last updated on Tue Aug 26 2025 00:02:05 GMT+0000 (Coordinated Universal Time)

1 64950U 25158U 25237.61027328 .00024225 00000+0 62112-3 0 9992 2 64950 97.6015 100.2209 0001880 77.3656 282.7799 15.39355787 5810
UTC large
Height (km)
Speed (km/s)
/
Latitude / Longitude
Inclination (degrees)
Orbital Period (minutes)
Azimuth
Elevation
Range (km)
Doppler Factor

Next 0 passes for location: London (51.5072 / 0.1276)

Sorry there are no passes over London.